| time (UTC) | temp F | wind direction | speed MPH | gust MPH | rain 1hr in | rain 24hr in | rain mn in | humidity % | barometer mb |
| 20260510215215 | 51 | 119 | 0.0 | 0.0 | 0.00 | 0.02 | 0.02 | 92 | 1008.5 |
| 20260510214721 | 51 | 119 | 0.0 | 0.0 | 0.00 | 0.02 | 0.02 | 92 | 1008.5 |
| 20260510214231 | 51 | 119 | 0.0 | 0.0 | 0.00 | 0.02 | 0.02 | 92 | 1008.5 |
| 20260510213227 | 51 | 119 | 0.0 | 0.0 | 0.00 | 0.02 | 0.02 | 92 | 1008.6 |
| 20260510212721 | 51 | 119 | 0.0 | 0.0 | 0.00 | 0.02 | 0.02 | 92 | 1008.7 |
| 20260510212225 | 51 | 119 | 0.0 | 0.0 | 0.00 | 0.02 | 0.02 | 91 | 1008.8 |
| 20260510211730 | 51 | 119 | 0.0 | 0.0 | 0.00 | 0.02 | 0.02 | 91 | 1008.9 |
| 20260510211220 | 51 | 119 | 0.0 | 0.0 | 0.00 | 0.02 | 0.02 | 91 | 1008.9 |
| 20260510210719 | 51 | 119 | 0.0 | 0.0 | 0.00 | 0.02 | 0.02 | 91 | 1009.0 |
| 20260510210224 | 51 | 119 | 0.0 | 0.0 | 0.00 | 0.02 | 0.02 | 91 | 1009.0 |
| 20260510205712 | 51 | 119 | 0.0 | 0.0 | 0.00 | 0.02 | 0.02 | 91 | 1009.0 |
| 20260510205214 | 51 | 119 | 0.0 | 0.0 | 0.00 | 0.02 | 0.02 | 91 | 1009.1 |
| 20260510204718 | 51 | 119 | 0.0 | 0.0 | 0.00 | 0.02 | 0.02 | 91 | 1009.1 |
| 20260510204221 | 51 | 119 | 0.0 | 0.0 | 0.00 | 0.02 | 0.02 | 90 | 1009.0 |
| 20260510203713 | 51 | 119 | 0.0 | 0.0 | 0.00 | 0.02 | 0.02 | 90 | 1009.1 |
| 20260510202734 | 51 | 119 | 0.0 | 0.0 | 0.00 | 0.02 | 0.02 | 90 | 1009.1 |
| 20260510202223 | 52 | 119 | 0.0 | 0.0 | 0.00 | 0.02 | 0.02 | 90 | 1009.1 |
| 20260510201723 | 52 | 119 | 0.0 | 0.0 | 0.00 | 0.02 | 0.02 | 90 | 1009.2 |
| 20260510201217 | 52 | 119 | 0.0 | 0.0 | 0.00 | 0.02 | 0.02 | 90 | 1009.2 |
| 20260510200706 | 52 | 101 | 0.0 | 0.0 | 0.00 | 0.02 | 0.02 | 90 | 1009.3 |
| 20260510200212 | 52 | 100 | 0.0 | 0.0 | 0.00 | 0.02 | 0.02 | 90 | 1009.3 |
| 20260510195719 | 52 | 111 | 0.0 | 0.0 | 0.00 | 0.02 | 0.02 | 90 | 1009.2 |
| 20260510194727 | 52 | 155 | 0.0 | 0.0 | 0.00 | 0.02 | 0.02 | 90 | 1009.2 |
| 20260510194230 | 52 | 155 | 0.0 | 0.0 | 0.00 | 0.02 | 0.02 | 90 | 1009.2 |
| 20260510193718 | 52 | 155 | 0.0 | 0.0 | 0.00 | 0.02 | 0.02 | 90 | 1009.1 |
| 20260510193232 | 53 | 121 | 0.0 | 0.0 | 0.00 | 0.02 | 0.02 | 90 | 1009.2 |
| 20260510192722 | 53 | 157 | 0.0 | 0.0 | 0.00 | 0.02 | 0.02 | 90 | 1009.2 |
| 20260510191223 | 53 | 142 | 0.0 | 0.0 | 0.00 | 0.02 | 0.02 | 89 | 1009.1 |
| 20260510185722 | 53 | 98 | 0.0 | 0.0 | 0.00 | 0.02 | 0.02 | 88 | 1009.1 |
| 20260510185215 | 53 | 130 | 0.0 | 4.0 | 0.00 | 0.02 | 0.02 | 87 | 1009.1 |
| 20260510184724 | 53 | 137 | 0.0 | 4.0 | 0.00 | 0.02 | 0.02 | 87 | 1008.9 |
| 20260510184213 | 53 | 142 | 0.0 | 4.0 | 0.00 | 0.02 | 0.02 | 87 | 1009.0 |
| 20260510183722 | 53 | 132 | 0.0 | 3.0 | 0.00 | 0.02 | 0.02 | 87 | 1009.0 |
| 20260510183229 | 54 | 128 | 0.0 | 3.0 | 0.00 | 0.02 | 0.02 | 87 | 1008.9 |
| 20260510182728 | 54 | 131 | 0.0 | 0.0 | 0.00 | 0.02 | 0.02 | 87 | 1009.1 |
| 20260510182208 | 54 | 134 | 0.0 | 0.0 | 0.00 | 0.02 | 0.02 | 87 | 1009.1 |
| 20260510181715 | 54 | 111 | 0.0 | 0.0 | 0.00 | 0.02 | 0.02 | 87 | 1009.1 |
| 20260510180712 | 54 | 117 | 0.0 | 0.0 | 0.00 | 0.02 | 0.02 | 88 | 1009.0 |
| 20260510180222 | 54 | 104 | 0.0 | 0.0 | 0.00 | 0.02 | 0.02 | 87 | 1009.1 |
| 20260510175727 | 54 | 121 | 0.0 | 0.0 | 0.00 | 0.02 | 0.02 | 88 | 1009.1 |
| 20260510175232 | 54 | 133 | 0.0 | 0.0 | 0.00 | 0.02 | 0.02 | 87 | 1009.2 |
| 20260510174716 | 54 | 126 | 0.0 | 0.0 | 0.00 | 0.02 | 0.02 | 88 | 1009.2 |
| 20260510174219 | 54 | 126 | 0.0 | 0.0 | 0.00 | 0.02 | 0.02 | 88 | 1009.3 |
| 20260510173725 | 54 | 102 | 0.0 | 0.0 | 0.00 | 0.02 | 0.02 | 88 | 1009.2 |
| 20260510173216 | 54 | 132 | 0.0 | 3.0 | 0.00 | 0.02 | 0.02 | 88 | 1009.3 |
| 20260510172708 | 54 | 128 | 0.0 | 3.0 | 0.00 | 0.02 | 0.02 | 88 | 1009.3 |
| 20260510172222 | 54 | 141 | 0.0 | 3.0 | 0.01 | 0.02 | 0.02 | 88 | 1009.3 |
| 20260510171714 | 54 | 143 | 0.0 | 0.0 | 0.01 | 0.02 | 0.02 | 88 | 1009.4 |
| 20260510171228 | 54 | 159 | 0.0 | 0.0 | 0.01 | 0.02 | 0.02 | 88 | 1009.4 |
| 20260510170728 | 54 | 176 | 0.0 | 0.0 | 0.02 | 0.02 | 0.02 | 87 | 1009.4 |
| 20260510170219 | 54 | 163 | 0.0 | 0.0 | 0.02 | 0.02 | 0.02 | 88 | 1009.4 |
| 20260510165710 | 54 | 145 | 0.0 | 0.0 | 0.02 | 0.02 | 0.02 | 87 | 1009.4 |
| 20260510165223 | 54 | 113 | 0.0 | 4.0 | 0.02 | 0.02 | 0.02 | 88 | 1009.4 |
| 20260510164723 | 54 | 125 | 0.0 | 5.0 | 0.02 | 0.02 | 0.02 | 87 | 1009.7 |
| 20260510163721 | 55 | 140 | 1.0 | 5.0 | 0.02 | 0.02 | 0.02 | 88 | 1009.8 |
| 20260510162726 | 55 | 137 | 1.0 | 4.0 | 0.02 | 0.02 | 0.02 | 87 | 1010.0 |
| 20260510162232 | 55 | 164 | 0.0 | 5.0 | 0.01 | 0.01 | 0.01 | 87 | 1010.1 |
| 20260510161224 | 55 | 221 | 1.0 | 9.0 | 0.01 | 0.01 | 0.01 | 86 | 1010.2 |
| 20260510160709 | 55 | 130 | 2.0 | 9.0 | 0.00 | 0.00 | 0.00 | 86 | 1010.2 |
| 20260510160227 | 55 | 92 | 3.0 | 9.0 | 0.00 | 0.00 | 0.00 | 85 | 1010.2 |
| 20260510155725 | 55 | 86 | 4.0 | 8.0 | 0.00 | 0.00 | 0.00 | 85 | 1010.3 |
| 20260510154717 | 56 | 175 | 2.0 | 7.0 | 0.00 | 0.00 | 0.00 | 84 | 1010.2 |
| 20260510154209 | 56 | 162 | 2.0 | 7.0 | 0.00 | 0.00 | 0.00 | 84 | 1010.2 |
| 20260510153727 | 56 | 148 | 1.0 | 8.0 | 0.00 | 0.00 | 0.00 | 83 | 1010.1 |
| 20260510153256 | 57 | 182 | 2.0 | 8.0 | 0.00 | 0.00 | 0.00 | 83 | 1010.2 |
| 20260510152217 | 58 | 123 | 0.0 | 6.0 | 0.00 | 0.00 | 0.00 | 82 | 1010.1 |
| 20260510151727 | 58 | 159 | 1.0 | 6.0 | 0.00 | 0.00 | 0.00 | 81 | 1010.1 |
| 20260510151223 | 58 | 184 | 1.0 | 5.0 | 0.00 | 0.00 | 0.00 | 80 | 1010.1 |
| 20260510150710 | 59 | 166 | 0.0 | 7.0 | 0.00 | 0.00 | 0.00 | 80 | 1009.9 |
| 20260510150219 | 59 | 137 | 1.0 | 7.0 | 0.00 | 0.00 | 0.00 | 79 | 1009.9 |
| 20260510145216 | 59 | 319 | 2.0 | 10.0 | 0.00 | 0.00 | 0.00 | 78 | 1009.9 |
| 20260510144722 | 59 | 74 | 4.0 | 10.0 | 0.00 | 0.00 | 0.00 | 77 | 1009.9 |
| 20260510144210 | 60 | 339 | 5.0 | 10.0 | 0.00 | 0.00 | 0.00 | 76 | 1009.9 |
| 20260510143729 | 60 | 349 | 4.0 | 7.0 | 0.00 | 0.00 | 0.00 | 76 | 1009.8 |
| 20260510143249 | 60 | 261 | 4.0 | 7.0 | 0.00 | 0.00 | 0.00 | 76 | 1009.8 |
| 20260510142727 | 61 | 311 | 2.0 | 9.0 | 0.00 | 0.00 | 0.00 | 75 | 1009.8 |
| 20260510142212 | 61 | 194 | 1.0 | 9.0 | 0.00 | 0.00 | 0.00 | 75 | 1009.8 |
| 20260510141725 | 62 | 254 | 3.0 | 9.0 | 0.00 | 0.00 | 0.00 | 75 | 1009.8 |
| 20260510141211 | 62 | 222 | 4.0 | 9.0 | 0.00 | 0.00 | 0.00 | 73 | 1009.8 |
| 20260510140748 | 63 | 331 | 1.0 | 8.0 | 0.00 | 0.00 | 0.00 | 73 | 1009.5 |
| 20260510135214 | 63 | 195 | 1.0 | 7.0 | 0.00 | 0.00 | 0.00 | 74 | 1009.7 |
| 20260510134233 | 64 | 165 | 2.0 | 4.0 | 0.00 | 0.00 | 0.00 | 72 | 1009.7 |
| 20260510133722 | 64 | 182 | 0.0 | 0.0 | 0.00 | 0.00 | 0.00 | 71 | 1009.7 |
| 20260510133230 | 64 | 185 | 0.0 | 4.0 | 0.00 | 0.00 | 0.00 | 71 | 1009.7 |
| 20260510132227 | 64 | 164 | 0.0 | 5.0 | 0.00 | 0.00 | 0.00 | 72 | 1009.8 |
| 20260510131747 | 64 | 257 | 1.0 | 6.0 | 0.00 | 0.00 | 0.00 | 71 | 1009.9 |
| 20260510131220 | 63 | 322 | 2.0 | 6.0 | 0.00 | 0.00 | 0.00 | 72 | 1009.8 |
| 20260510130221 | 63 | 290 | 3.0 | 8.0 | 0.00 | 0.00 | 0.00 | 73 | 1009.8 |
| 20260510125717 | 62 | 282 | 3.0 | 8.0 | 0.00 | 0.00 | 0.00 | 73 | 1009.9 |
| 20260510125223 | 62 | 250 | 2.0 | 8.0 | 0.00 | 0.00 | 0.00 | 73 | 1009.9 |
| 20260510124729 | 62 | 162 | 2.0 | 8.0 | 0.00 | 0.00 | 0.00 | 73 | 1009.9 |
| 20260510124222 | 63 | 165 | 2.0 | 8.0 | 0.00 | 0.00 | 0.00 | 71 | 1010.0 |
| 20260510123716 | 63 | 184 | 1.0 | 8.0 | 0.00 | 0.00 | 0.00 | 71 | 1009.9 |
| 20260510123211 | 63 | 313 | 3.0 | 8.0 | 0.00 | 0.00 | 0.00 | 71 | 1009.9 |
| 20260510122714 | 63 | 309 | 4.0 | 8.0 | 0.00 | 0.00 | 0.00 | 70 | 1009.9 |
| 20260510122213 | 63 | 305 | 4.0 | 7.0 | 0.00 | 0.00 | 0.00 | 69 | 1010.0 |
| 20260510121720 | 63 | 329 | 4.0 | 7.0 | 0.00 | 0.00 | 0.00 | 69 | 1010.0 |
| 20260510121212 | 63 | 327 | 4.0 | 7.0 | 0.00 | 0.00 | 0.00 | 68 | 1010.1 |
| 20260510120721 | 64 | 306 | 3.0 | 7.0 | 0.00 | 0.00 | 0.00 | 68 | 1010.1 |
| 20260510120210 | 64 | 308 | 1.0 | 7.0 | 0.00 | 0.00 | 0.00 | 67 | 1010.2 |
| 20260510115717 | 64 | 171 | 1.0 | 7.0 | 0.00 | 0.00 | 0.00 | 68 | 1010.2 |
| 20260510115217 | 64 | 196 | 2.0 | 8.0 | 0.00 | 0.00 | 0.00 | 67 | 1010.2 |
| 20260510114728 | 64 | 159 | 2.0 | 8.0 | 0.00 | 0.00 | 0.00 | 67 | 1010.3 |
| 20260510114226 | 64 | 175 | 3.0 | 8.0 | 0.00 | 0.00 | 0.00 | 66 | 1010.3 |
| 20260510113715 | 64 | 175 | 3.0 | 8.0 | 0.00 | 0.00 | 0.00 | 67 | 1010.3 |
| 20260510113224 | 64 | 173 | 3.0 | 8.0 | 0.00 | 0.00 | 0.00 | 66 | 1010.2 |
| 20260510112726 | 64 | 153 | 1.0 | 6.0 | 0.00 | 0.00 | 0.00 | 66 | 1010.3 |
| 20260510111710 | 64 | 162 | 1.0 | 10.0 | 0.00 | 0.00 | 0.00 | 68 | 1010.3 |
| 20260510111220 | 63 | 149 | 3.0 | 10.0 | 0.00 | 0.00 | 0.00 | 67 | 1010.3 |
| 20260510110723 | 63 | 54 | 4.0 | 10.0 | 0.00 | 0.00 | 0.00 | 68 | 1010.4 |
| 20260510110214 | 63 | 161 | 3.0 | 7.0 | 0.00 | 0.00 | 0.00 | 67 | 1010.5 |
| 20260510105727 | 63 | 159 | 3.0 | 7.0 | 0.00 | 0.00 | 0.00 | 67 | 1010.4 |
| 20260510104726 | 63 | 169 | 3.0 | 8.0 | 0.00 | 0.00 | 0.00 | 66 | 1010.5 |
| 20260510104211 | 64 | 171 | 4.0 | 9.0 | 0.00 | 0.00 | 0.00 | 66 | 1010.5 |
| 20260510103713 | 64 | 173 | 6.0 | 9.0 | 0.00 | 0.00 | 0.00 | 65 | 1010.5 |
| 20260510103227 | 65 | 171 | 3.0 | 9.0 | 0.00 | 0.00 | 0.00 | 63 | 1010.6 |
| 20260510102718 | 65 | 175 | 1.0 | 8.0 | 0.00 | 0.00 | 0.00 | 65 | 1010.7 |
| 20260510102224 | 65 | 198 | 3.0 | 8.0 | 0.00 | 0.00 | 0.00 | 64 | 1010.7 |
| 20260510101727 | 66 | 188 | 2.0 | 8.0 | 0.00 | 0.00 | 0.00 | 65 | 1010.8 |
| 20260510101211 | 65 | 165 | 0.0 | 7.0 | 0.00 | 0.00 | 0.00 | 65 | 1010.8 |
| 20260510100722 | 65 | 294 | 1.0 | 7.0 | 0.00 | 0.00 | 0.00 | 64 | 1010.9 |
| 20260510095715 | 65 | 171 | 1.0 | 6.0 | 0.00 | 0.00 | 0.00 | 63 | 1011.1 |
| 20260510095227 | 64 | 215 | 0.0 | 5.0 | 0.00 | 0.00 | 0.00 | 65 | 1011.2 |
| 20260510094717 | 64 | 170 | 1.0 | 7.0 | 0.00 | 0.00 | 0.00 | 64 | 1011.2 |
| 20260510094225 | 63 | 153 | 1.0 | 7.0 | 0.00 | 0.00 | 0.00 | 63 | 1011.1 |
| 20260510093708 | 63 | 176 | 2.0 | 7.0 | 0.00 | 0.00 | 0.00 | 63 | 1011.1 |
| 20260510092715 | 63 | 167 | 2.0 | 6.0 | 0.00 | 0.00 | 0.00 | 62 | 1011.1 |
| 20260510092219 | 63 | 139 | 0.0 | 6.0 | 0.00 | 0.00 | 0.00 | 62 | 1010.9 |
| 20260510091722 | 63 | 152 | 1.0 | 6.0 | 0.00 | 0.00 | 0.00 | 62 | 1011.1 |
| 20260510091220 | 63 | 151 | 2.0 | 6.0 | 0.00 | 0.00 | 0.00 | 62 | 1011.1 |
| 20260510090713 | 63 | 176 | 1.0 | 5.0 | 0.00 | 0.00 | 0.00 | 61 | 1011.1 |
| 20260510090222 | 63 | 175 | 1.0 | 8.0 | 0.00 | 0.00 | 0.00 | 61 | 1011.1 |
| 20260510085715 | 63 | 163 | 2.0 | 8.0 | 0.00 | 0.00 | 0.00 | 61 | 1011.2 |
| 20260510085213 | 63 | 121 | 4.0 | 8.0 | 0.00 | 0.00 | 0.00 | 61 | 1011.2 |
| 20260510084733 | 63 | 178 | 3.0 | 7.0 | 0.00 | 0.00 | 0.00 | 61 | 1011.2 |
| 20260510083710 | 63 | 165 | 2.0 | 7.0 | 0.00 | 0.00 | 0.00 | 59 | 1011.2 |
| 20260510083213 | 63 | 155 | 2.0 | 7.0 | 0.00 | 0.00 | 0.00 | 60 | 1011.3 |
| 20260510082722 | 63 | 184 | 2.0 | 6.0 | 0.00 | 0.00 | 0.00 | 60 | 1011.3 |
| 20260510081722 | 62 | 92 | 1.0 | 5.0 | 0.00 | 0.00 | 0.00 | 60 | 1011.2 |
| 20260510081221 | 62 | 169 | 1.0 | 5.0 | 0.00 | 0.00 | 0.00 | 62 | 1011.2 |
| 20260510080722 | 62 | 161 | 1.0 | 5.0 | 0.00 | 0.00 | 0.00 | 61 | 1011.1 |
| 20260510080231 | 62 | 136 | 2.0 | 5.0 | 0.00 | 0.00 | 0.00 | 62 | 1011.2 |
| 20260510075719 | 62 | 163 | 2.0 | 5.0 | 0.00 | 0.00 | 0.00 | 62 | 1011.2 |
| 20260510074715 | 63 | 121 | 0.0 | 0.0 | 0.00 | 0.00 | 0.00 | 65 | 1011.2 |
| 20260510074213 | 63 | 127 | 0.0 | 0.0 | 0.00 | 0.00 | 0.00 | 63 | 1011.2 |
| 20260510073723 | 63 | 132 | 0.0 | 0.0 | 0.00 | 0.00 | 0.00 | 63 | 1011.2 |
| 20260510073211 | 64 | 163 | 0.0 | 0.0 | 0.00 | 0.00 | 0.00 | 61 | 1011.1 |
| 20260510072714 | 64 | 123 | 0.0 | 0.0 | 0.00 | 0.00 | 0.00 | 61 | 1010.9 |
| 20260510072220 | 64 | 123 | 0.0 | 0.0 | 0.00 | 0.00 | 0.00 | 61 | 1010.9 |
| 20260510071719 | 63 | 123 | 0.0 | 0.0 | 0.00 | 0.00 | 0.00 | 60 | 1010.9 |
| 20260510071216 | 62 | 123 | 0.0 | 0.0 | 0.00 | 0.00 | 0.00 | 64 | 1010.9 |
| 20260510070740 | 62 | 123 | 0.0 | 0.0 | 0.00 | 0.00 | 0.00 | 65 | 1011.1 |
| 20260510070218 | 61 | 123 | 0.0 | 0.0 | 0.00 | 0.00 | 0.00 | 67 | 1011.2 |
| 20260510065715 | 60 | 123 | 0.0 | 0.0 | 0.00 | 0.00 | 0.00 | 68 | 1011.3 |
| 20260510065226 | 60 | 123 | 0.0 | 0.0 | 0.00 | 0.00 | 0.00 | 71 | 1011.3 |
| 20260510064724 | 59 | 123 | 0.0 | 0.0 | 0.00 | 0.00 | 0.00 | 71 | 1011.3 |
| 20260510064220 | 57 | 123 | 0.0 | 0.0 | 0.00 | 0.00 | 0.00 | 72 | 1011.3 |
| 20260510063211 | 56 | 123 | 0.0 | 0.0 | 0.00 | 0.00 | 0.00 | 72 | 1011.4 |
| 20260510062217 | 54 | 123 | 0.0 | 0.0 | 0.00 | 0.00 | 0.00 | 76 | 1011.4 |
| 20260510061730 | 53 | 123 | 0.0 | 0.0 | 0.00 | 0.00 | 0.00 | 78 | 1011.4 |
| 20260510061227 | 53 | 123 | 0.0 | 0.0 | 0.00 | 0.00 | 0.00 | 78 | 1011.5 |
| 20260510060726 | 52 | 123 | 0.0 | 0.0 | 0.00 | 0.00 | 0.00 | 79 | 1011.6 |
| 20260510055720 | 52 | 123 | 0.0 | 0.0 | 0.00 | 0.00 | 0.00 | 79 | 1011.6 |
| 20260510055224 | 51 | 123 | 0.0 | 0.0 | 0.00 | 0.00 | 0.00 | 79 | 1011.6 |
| 20260510054218 | 51 | 123 | 0.0 | 0.0 | 0.00 | 0.00 | 0.00 | 80 | 1011.8 |
| 20260510053216 | 51 | 123 | 0.0 | 0.0 | 0.00 | 0.00 | 0.00 | 80 | 1011.8 |
| 20260510052719 | 50 | 123 | 0.0 | 0.0 | 0.00 | 0.00 | 0.00 | 80 | 1011.8 |
| 20260510052221 | 50 | 123 | 0.0 | 0.0 | 0.00 | 0.00 | 0.00 | 80 | 1011.8 |
| 20260510051711 | 50 | 123 | 0.0 | 0.0 | 0.00 | 0.00 | 0.00 | 80 | 1011.8 |
| 20260510051229 | 50 | 123 | 0.0 | 0.0 | 0.00 | 0.00 | 0.00 | 79 | 1011.8 |
| 20260510050720 | 50 | 123 | 0.0 | 0.0 | 0.00 | 0.00 | 0.00 | 80 | 1011.8 |
| 20260510050219 | 50 | 123 | 0.0 | 0.0 | 0.00 | 0.00 | 0.00 | 80 | 1011.8 |
| 20260510045727 | 50 | 123 | 0.0 | 0.0 | 0.00 | 0.00 | 0.00 | 80 | 1011.8 |
| 20260510045221 | 50 | 110 | 0.0 | 0.0 | 0.00 | 0.00 | 0.00 | 80 | 1011.9 |
| 20260510044721 | 50 | 150 | 0.0 | 0.0 | 0.00 | 0.00 | 0.00 | 79 | 1011.9 |
| 20260510043715 | 49 | 106 | 0.0 | 0.0 | 0.00 | 0.00 | 0.00 | 80 | 1011.9 |
| 20260510043218 | 49 | 107 | 0.0 | 0.0 | 0.00 | 0.00 | 0.00 | 80 | 1012.0 |
| 20260510042727 | 49 | 107 | 0.0 | 0.0 | 0.00 | 0.00 | 0.00 | 80 | 1012.0 |
| 20260510042231 | 49 | 107 | 0.0 | 0.0 | 0.00 | 0.00 | 0.00 | 80 | 1012.1 |
| 20260510041710 | 49 | 107 | 0.0 | 0.0 | 0.00 | 0.00 | 0.00 | 80 | 1012.1 |
| 20260510041216 | 49 | 107 | 0.0 | 0.0 | 0.00 | 0.00 | 0.00 | 80 | 1012.1 |
| 20260510040717 | 49 | 107 | 0.0 | 0.0 | 0.00 | 0.00 | 0.00 | 80 | 1012.1 |
| 20260510040219 | 49 | 107 | 0.0 | 0.0 | 0.00 | 0.00 | 0.00 | 80 | 1012.2 |
| 20260510035720 | 49 | 107 | 0.0 | 0.0 | 0.00 | 0.00 | 0.00 | 80 | 1012.2 |
| 20260510034220 | 49 | 107 | 0.0 | 0.0 | 0.00 | 0.00 | 0.00 | 80 | 1012.2 |
| 20260510033718 | 49 | 107 | 0.0 | 0.0 | 0.00 | 0.00 | 0.00 | 80 | 1012.2 |
| 20260510032722 | 49 | 107 | 0.0 | 0.0 | 0.00 | 0.00 | 0.00 | 80 | 1012.4 |
| 20260510032223 | 49 | 107 | 0.0 | 0.0 | 0.00 | 0.00 | 0.00 | 80 | 1012.5 |
| 20260510031719 | 49 | 107 | 0.0 | 0.0 | 0.00 | 0.00 | 0.00 | 80 | 1012.5 |
| 20260510031226 | 49 | 107 | 0.0 | 0.0 | 0.00 | 0.00 | 0.00 | 80 | 1012.6 |
| 20260510030720 | 49 | 107 | 0.0 | 0.0 | 0.00 | 0.00 | 0.00 | 79 | 1012.6 |
| 20260510030220 | 50 | 107 | 0.0 | 0.0 | 0.00 | 0.00 | 0.00 | 79 | 1012.6 |
| 20260510025723 | 50 | 107 | 0.0 | 0.0 | 0.00 | 0.00 | 0.00 | 79 | 1012.7 |
| 20260510025222 | 50 | 107 | 0.0 | 0.0 | 0.00 | 0.00 | 0.00 | 79 | 1012.7 |
| 20260510024720 | 50 | 107 | 0.0 | 0.0 | 0.00 | 0.00 | 0.00 | 79 | 1012.7 |
| 20260510023226 | 50 | 107 | 0.0 | 0.0 | 0.00 | 0.00 | 0.00 | 79 | 1012.7 |
| 20260510022724 | 50 | 107 | 0.0 | 0.0 | 0.00 | 0.00 | 0.00 | 79 | 1012.7 |
| 20260510022213 | 50 | 107 | 0.0 | 0.0 | 0.00 | 0.00 | 0.00 | 79 | 1012.7 |
| 20260510021727 | 50 | 107 | 0.0 | 0.0 | 0.00 | 0.00 | 0.00 | 79 | 1012.7 |
| 20260510021222 | 50 | 107 | 0.0 | 0.0 | 0.00 | 0.00 | 0.00 | 79 | 1012.7 |
| 20260510020712 | 50 | 107 | 0.0 | 0.0 | 0.00 | 0.00 | 0.00 | 78 | 1012.7 |
| 20260510020205 | 50 | 89 | 0.0 | 0.0 | 0.00 | 0.00 | 0.00 | 78 | 1012.7 |
| 20260510015725 | 50 | 94 | 0.0 | 0.0 | 0.00 | 0.01 | 0.00 | 78 | 1012.8 |
| 20260510014729 | 50 | 94 | 0.0 | 0.0 | 0.00 | 0.01 | 0.00 | 78 | 1012.9 |
| 20260510014228 | 51 | 94 | 0.0 | 0.0 | 0.00 | 0.01 | 0.00 | 78 | 1013.0 |
| 20260510013713 | 51 | 98 | 0.0 | 0.0 | 0.00 | 0.01 | 0.00 | 78 | 1013.0 |
| 20260510013227 | 51 | 98 | 0.0 | 0.0 | 0.00 | 0.01 | 0.00 | 77 | 1013.1 |
| 20260510012712 | 51 | 98 | 0.0 | 0.0 | 0.00 | 0.01 | 0.00 | 78 | 1013.1 |
| 20260510012207 | 51 | 98 | 0.0 | 0.0 | 0.00 | 0.01 | 0.00 | 78 | 1013.2 |
| 20260510011727 | 51 | 98 | 0.0 | 0.0 | 0.00 | 0.01 | 0.00 | 77 | 1013.2 |
| 20260510011222 | 51 | 98 | 0.0 | 0.0 | 0.00 | 0.01 | 0.00 | 78 | 1013.3 |
| 20260510010723 | 51 | 98 | 0.0 | 0.0 | 0.00 | 0.01 | 0.00 | 77 | 1013.2 |
| 20260510010215 | 51 | 98 | 0.0 | 0.0 | 0.00 | 0.01 | 0.00 | 77 | 1013.2 |
| 20260510005713 | 52 | 98 | 0.0 | 0.0 | 0.00 | 0.01 | 0.00 | 76 | 1013.3 |
| 20260510005223 | 52 | 98 | 0.0 | 0.0 | 0.00 | 0.01 | 0.00 | 75 | 1013.3 |
| 20260510004714 | 52 | 98 | 0.0 | 0.0 | 0.00 | 0.01 | 0.00 | 76 | 1013.3 |
| 20260510004213 | 52 | 95 | 0.0 | 0.0 | 0.00 | 0.01 | 0.00 | 76 | 1013.3 |
| 20260510003719 | 52 | 5 | 0.0 | 0.0 | 0.00 | 0.01 | 0.00 | 76 | 1013.3 |
| 20260510003218 | 52 | 29 | 0.0 | 0.0 | 0.00 | 0.01 | 0.00 | 77 | 1013.2 |
| 20260510002713 | 52 | 51 | 0.0 | 0.0 | 0.00 | 0.01 | 0.00 | 76 | 1013.3 |
| 20260510001728 | 52 | 101 | 0.0 | 0.0 | 0.00 | 0.01 | 0.00 | 75 | 1013.4 |
| 20260510001253 | 53 | 104 | 0.0 | 0.0 | 0.00 | 0.01 | 0.00 | 75 | 1013.5 |
| 20260510000729 | 53 | 69 | 0.0 | 0.0 | 0.00 | 0.01 | 0.00 | 74 | 1013.7 |
| 20260510000223 | 53 | 69 | 0.0 | 0.0 | 0.00 | 0.01 | 0.00 | 74 | 1013.8 |
| 20260509235718 | 53 | 74 | 0.0 | 0.0 | 0.00 | 0.01 | 0.00 | 74 | 1013.8 |
| 20260509235229 | 53 | 74 | 0.0 | 0.0 | 0.00 | 0.01 | 0.00 | 74 | 1013.8 |
| 20260509234716 | 53 | 74 | 0.0 | 0.0 | 0.00 | 0.01 | 0.00 | 74 | 1013.9 |
| 20260509234213 | 53 | 47 | 0.0 | 0.0 | 0.00 | 0.01 | 0.00 | 74 | 1013.9 |
| 20260509233223 | 53 | 329 | 0.0 | 0.0 | 0.00 | 0.01 | 0.00 | 75 | 1014.0 |
| 20260509232715 | 53 | 355 | 0.0 | 0.0 | 0.00 | 0.01 | 0.00 | 74 | 1014.0 |
| 20260509232227 | 52 | 5 | 0.0 | 0.0 | 0.00 | 0.01 | 0.00 | 75 | 1014.1 |
| 20260509231729 | 52 | 20 | 0.0 | 0.0 | 0.00 | 0.01 | 0.00 | 75 | 1014.1 |
| 20260509231222 | 52 | 5 | 0.0 | 0.0 | 0.00 | 0.01 | 0.00 | 76 | 1014.2 |
| 20260509230229 | 52 | 25 | 0.0 | 0.0 | 0.00 | 0.01 | 0.00 | 76 | 1014.2 |
| 20260509225716 | 52 | 355 | 0.0 | 0.0 | 0.00 | 0.01 | 0.00 | 76 | 1014.2 |
| 20260509225221 | 52 | 350 | 0.0 | 0.0 | 0.00 | 0.01 | 0.00 | 77 | 1014.2 |
| 20260509224727 | 52 | 350 | 0.0 | 0.0 | 0.00 | 0.01 | 0.00 | 77 | 1014.3 |
| 20260509224226 | 52 | 350 | 0.0 | 0.0 | 0.00 | 0.01 | 0.00 | 77 | 1014.4 |
| 20260509223226 | 52 | 346 | 0.0 | 0.0 | 0.00 | 0.01 | 0.00 | 77 | 1014.4 |
| 20260509222712 | 52 | 346 | 0.0 | 0.0 | 0.00 | 0.01 | 0.00 | 77 | 1014.5 |
| 20260509222222 | 52 | 346 | 0.0 | 0.0 | 0.00 | 0.01 | 0.00 | 76 | 1014.5 |
| 20260509221712 | 52 | 346 | 0.0 | 0.0 | 0.00 | 0.01 | 0.00 | 77 | 1014.5 |
| 20260509221212 | 52 | 177 | 0.0 | 0.0 | 0.00 | 0.01 | 0.00 | 75 | 1014.5 |
| 20260509220729 | 52 | 208 | 0.0 | 0.0 | 0.00 | 0.01 | 0.00 | 75 | 1014.6 |
| 20260509220222 | 52 | 19 | 0.0 | 0.0 | 0.00 | 0.01 | 0.01 | 77 | 1014.5 |
| 20260509215723 | 52 | 11 | 0.0 | 0.0 | 0.00 | 0.01 | 0.01 | 77 | 1014.6 |